COSMOS 1275 DEB, 39935

Orbit data source: Space-Track

COSMOS 1275 DEB, 39935 is space debris in LEO originally from a launch on Thu, 04 Jun 1981 UTC launched from the Plesetsk Missile And Space Complex (PKMTR). Debris objects in space refer to the collection of defunct objects orbiting the Earth. Examples of debris include non-operational satellites, rocket bodies, and fragments generated from explosions, collisions, or faulty payload assembly.

Loading next visibility...
Identifier
39935, 1981-053MV
Orbit
LEO
Country
Flag of CISCIS
Related business
Manufacturer
Unknown
Mission
Spacecraft
Bus & Motor
Unknown
Mass
Unknown
Launch date (UTC)
1981-06-04 (45 years ago)
Launch vehicle
Unknown
Launch site
Plesetsk Missile And Space Complex (PKMTR)
Object type
Payload
Rocket body
Debris
Shape & HBR
Unknown shape, 0.1 m
Radar Cross Section
Small (<0.1 m²)

Expand to show TLE details & history
Last TLE update: 2 days ago

TLE from 2 days ago
0 COSMOS 1275 DEB
1 39935U 81053MV  26261.27896500  .00000609  00000-0  41812-3 0  9994
2 39935  82.8210  86.3143 0034335 228.4033 308.5913 13.97735891625080
Epoch: 2026-09-18T06:41Z
TLE epoch observation values (Epoch: 2026-09-18T06:41:42.576Z)
Latitude
3.19122°
Longitude
168.2825°
Altitude
888.675 km
Speed
7.416 km/s
True Right ascension
17h 43m 39s
True Declination
3° 10' 21"
Sunlit
Object was in daylight at epoch
Visualization orbit readout
Latitude
Unknown
Longitude
Unknown
Altitude
Unknown
Speed
Unknown
Apparent Right ascension
Unknown
Apparent Declination
Unknown
Sunlit
N/A
Visualization observer readout
Local Sidereal Time
06:22:56
Azimuth
Unknown
Elevation
Unknown
Doppler factor
Unknown
Orbital elements
Apogee altitude
923.753 km
Perigee altitude
873.783 km
Semi-major axis
7,276.905 km
Eccentricity
0.00343
Inclination
82.821°
RAAN
86.3143°
Arg. of periapsis
228.4033°
True anomaly
308.28295°
Mean anomaly
308.5913°
Eccentric anomaly
308.43721°
Mean motion
3.49642 °/min
Orbital period
102.96 mins
BSTAR
0.00041812
Loading maneuver chart data...
Computing Atmospheric mass density...

Documentation

Showing up to 5 results
|